| time (UTC) | temp C | wind direction | speed KPH | gust KPH | rain 1hr cm | rain 24hr cm | rain mn cm | humidity % | barometer mb |
| 20260502123048 | 10 | 0 | 0.0 | 0.0 | 0.00 | 2.57 | 0.00 | 94 | 1020.9 |
| 20260502121546 | 10 | 0 | 0.0 | 0.0 | 0.00 | 2.57 | 0.00 | 94 | 1020.7 |
| 20260502114558 | 10 | 0 | 0.0 | 0.0 | 0.00 | 3.02 | 0.00 | 94 | 1020.4 |
| 20260502113044 | 10 | 0 | 0.0 | 0.0 | 0.00 | 3.02 | 0.00 | 94 | 1020.3 |
| 20260502111554 | 10 | 0 | 0.0 | 0.0 | 0.00 | 3.02 | 0.00 | 93 | 1020.3 |
| 20260502110050 | 10 | 0 | 0.0 | 0.0 | 0.00 | 3.02 | 0.00 | 93 | 1020.2 |
| 20260502104551 | 10 | 0 | 0.0 | 0.0 | 0.00 | 3.53 | 0.00 | 93 | 1019.9 |
| 20260502103050 | 10 | 0 | 0.0 | 0.0 | 0.00 | 3.53 | 0.00 | 92 | 1019.6 |
| 20260502101615 | 10 | 0 | 0.0 | 0.0 | 0.00 | 3.53 | 0.00 | 92 | 1019.3 |
| 20260502090104 | 11 | 0 | 0.0 | 0.0 | 0.00 | 3.94 | 0.00 | 91 | 1018.4 |
| 20260502070054 | 11 | 0 | 0.0 | 0.0 | 0.00 | 4.29 | 0.00 | 92 | 1017.9 |
| 20260502064537 | 11 | 0 | 0.0 | 1.6 | 0.00 | 4.34 | 0.00 | 92 | 1018.0 |
| 20260502063050 | 11 | 0 | 0.0 | 0.0 | 0.00 | 4.34 | 0.00 | 92 | 1018.2 |
| 20260502061544 | 11 | 0 | 0.0 | 1.6 | 0.00 | 4.34 | 0.00 | 92 | 1018.4 |
| 20260502060041 | 11 | 0 | 0.0 | 1.6 | 0.00 | 4.34 | 0.00 | 92 | 1018.3 |
| 20260502054541 | 11 | 0 | 0.0 | 0.0 | 0.00 | 4.34 | 0.00 | 93 | 1018.4 |
| 20260502053038 | 11 | 0 | 0.0 | 0.0 | 0.00 | 4.34 | 0.00 | 93 | 1018.2 |
| 20260502051603 | 11 | 0 | 0.0 | 0.0 | 0.00 | 4.34 | 0.00 | 93 | 1018.3 |
| 20260502050047 | 11 | 0 | 0.0 | 0.0 | 0.00 | 4.34 | 0.00 | 92 | 1018.0 |
| 20260502044548 | 12 | 0 | 0.0 | 0.0 | 0.00 | 4.34 | 4.34 | 91 | 1018.2 |
| 20260502043052 | 12 | 0 | 0.0 | 1.6 | 0.00 | 4.34 | 4.34 | 91 | 1018.2 |
| 20260502041548 | 12 | 0 | 0.0 | 1.6 | 0.00 | 4.34 | 4.34 | 90 | 1018.1 |
| 20260502040057 | 12 | 0 | 0.0 | 1.6 | 0.00 | 4.34 | 4.34 | 90 | 1018.1 |
| 20260502034544 | 12 | 0 | 0.0 | 1.6 | 0.00 | 4.34 | 4.34 | 90 | 1018.2 |
| 20260502033049 | 12 | 0 | 0.0 | 3.2 | 0.00 | 4.34 | 4.34 | 90 | 1018.1 |
| 20260502031540 | 12 | 0 | 0.0 | 3.2 | 0.00 | 4.34 | 4.34 | 91 | 1017.8 |
| 20260502030050 | 12 | 0 | 0.0 | 4.8 | 0.00 | 4.34 | 4.34 | 91 | 1017.8 |
| 20260502024546 | 12 | 0 | 0.0 | 1.6 | 0.00 | 4.34 | 4.34 | 91 | 1017.7 |
| 20260502023058 | 12 | 0 | 0.0 | 1.6 | 0.00 | 4.34 | 4.34 | 92 | 1017.1 |
| 20260502021542 | 12 | 0 | 0.0 | 1.6 | 0.00 | 4.34 | 4.34 | 92 | 1016.8 |
| 20260502020058 | 12 | 0 | 0.0 | 3.2 | 0.00 | 4.34 | 4.34 | 92 | 1016.8 |
| 20260502014539 | 12 | 0 | 0.0 | 1.6 | 0.00 | 4.34 | 4.34 | 93 | 1016.5 |
| 20260502013053 | 12 | 0 | 0.0 | 1.6 | 0.00 | 4.34 | 4.34 | 94 | 1016.1 |
| 20260502011543 | 12 | 355 | 0.0 | 1.6 | 0.00 | 4.34 | 4.34 | 94 | 1015.9 |
| 20260502010043 | 12 | 267 | 0.0 | 4.8 | 0.00 | 4.34 | 4.34 | 94 | 1015.7 |
| 20260502004539 | 12 | 205 | 0.0 | 3.2 | 0.00 | 4.34 | 4.34 | 94 | 1015.5 |
| 20260502003045 | 12 | 0 | 0.0 | 3.2 | 0.00 | 4.34 | 4.34 | 95 | 1015.1 |
| 20260502001604 | 12 | 273 | 0.0 | 3.2 | 0.00 | 4.34 | 4.34 | 94 | 1014.8 |
| 20260502000051 | 12 | 270 | 0.0 | 4.8 | 0.03 | 4.34 | 4.34 | 94 | 1013.9 |
| 20260501234550 | 12 | 111 | 0.0 | 3.2 | 0.03 | 4.34 | 4.34 | 94 | 1014.2 |
| 20260501233053 | 13 | 0 | 0.0 | 3.2 | 0.05 | 4.34 | 4.34 | 94 | 1014.7 |
| 20260501231539 | 13 | 0 | 0.0 | 4.8 | 0.13 | 4.34 | 4.34 | 94 | 1014.3 |
| 20260501230039 | 13 | 0 | 0.0 | 6.4 | 0.23 | 4.32 | 4.32 | 95 | 1013.9 |
| 20260501224547 | 13 | 117 | 0.0 | 4.8 | 0.28 | 4.32 | 4.32 | 95 | 1013.8 |
| 20260501223045 | 13 | 269 | 0.0 | 4.8 | 0.38 | 4.29 | 4.29 | 95 | 1013.9 |
| 20260501221542 | 13 | 186 | 1.6 | 6.4 | 0.38 | 4.22 | 4.22 | 95 | 1013.3 |
| 20260501220111 | 13 | 0 | 0.0 | 6.4 | 0.36 | 4.09 | 4.09 | 95 | 1013.5 |
| 20260501214548 | 13 | 0 | 0.0 | 3.2 | 0.33 | 4.04 | 4.04 | 95 | 1013.7 |
| 20260501213058 | 13 | 263 | 0.0 | 4.8 | 0.20 | 3.91 | 3.91 | 95 | 1013.0 |
| 20260501211545 | 13 | 0 | 0.0 | 8.0 | 0.15 | 3.84 | 3.84 | 94 | 1012.8 |
| 20260501204544 | 14 | 120 | 0.0 | 3.2 | 0.08 | 3.71 | 3.71 | 95 | 1011.8 |
| 20260501203042 | 14 | 86 | 0.0 | 3.2 | 0.13 | 3.71 | 3.71 | 95 | 1011.8 |
| 20260501201555 | 15 | 0 | 0.0 | 4.8 | 0.15 | 3.68 | 3.68 | 95 | 1011.0 |
| 20260501200047 | 15 | 86 | 0.0 | 3.2 | 0.13 | 3.66 | 3.66 | 95 | 1011.3 |
| 20260501194549 | 15 | 0 | 0.0 | 1.6 | 0.10 | 6.38 | 3.63 | 96 | 1012.0 |
| 20260501193048 | 15 | 238 | 0.0 | 4.8 | 0.10 | 6.32 | 3.58 | 95 | 1012.7 |
| 20260501191542 | 15 | 0 | 1.6 | 6.4 | 0.28 | 6.27 | 3.53 | 95 | 1013.6 |
| 20260501190041 | 15 | 0 | 0.0 | 3.2 | 0.51 | 6.27 | 3.53 | 96 | 1011.3 |
| 20260501184539 | 15 | 102 | 0.0 | 8.0 | 0.53 | 6.63 | 3.53 | 96 | 1011.4 |
| 20260501183058 | 15 | 128 | 0.0 | 8.0 | 0.51 | 6.55 | 3.45 | 95 | 1011.9 |
| 20260501181601 | 15 | 107 | 0.0 | 3.2 | 0.28 | 6.32 | 3.23 | 95 | 1013.9 |
| 20260501180046 | 15 | 9 | 0.0 | 1.6 | 0.08 | 6.12 | 3.02 | 95 | 1014.1 |
| 20260501174549 | 15 | 290 | 0.0 | 4.8 | 0.05 | 6.10 | 2.97 | 95 | 1012.5 |
| 20260501173050 | 15 | 0 | 0.0 | 1.6 | 0.03 | 6.05 | 2.95 | 95 | 1012.8 |
| 20260501171547 | 15 | 103 | 0.0 | 1.6 | 0.03 | 6.05 | 2.95 | 95 | 1013.0 |
| 20260501170101 | 15 | 0 | 0.0 | 1.6 | 0.05 | 6.05 | 2.95 | 95 | 1012.1 |
| 20260501164546 | 15 | 0 | 0.0 | 3.2 | 0.15 | 6.05 | 2.95 | 96 | 1011.7 |
| 20260501163053 | 15 | 0 | 0.0 | 4.8 | 0.23 | 5.99 | 2.92 | 95 | 1012.4 |
| 20260501161554 | 15 | 255 | 0.0 | 3.2 | 0.23 | 5.99 | 2.92 | 96 | 1012.0 |
| 20260501160108 | 15 | 117 | 0.0 | 3.2 | 0.20 | 5.97 | 2.90 | 96 | 1011.6 |
| 20260501154553 | 15 | 243 | 0.0 | 3.2 | 0.13 | 5.89 | 2.79 | 95 | 1010.9 |
| 20260501153043 | 15 | 114 | 0.0 | 1.6 | 0.13 | 5.79 | 2.67 | 95 | 1013.5 |
| 20260501151552 | 15 | 0 | 0.0 | 3.2 | 0.28 | 5.79 | 2.67 | 95 | 1013.3 |
| 20260501150054 | 15 | 0 | 0.0 | 1.6 | 0.41 | 5.79 | 2.67 | 96 | 1013.5 |
| 20260501144554 | 15 | 286 | 0.0 | 3.2 | 0.48 | 5.77 | 2.64 | 96 | 1013.2 |
| 20260501143106 | 15 | 0 | 0.0 | 1.6 | 0.41 | 5.66 | 2.57 | 96 | 1013.3 |
| 20260501141545 | 15 | 215 | 0.0 | 1.6 | 0.25 | 5.51 | 2.41 | 95 | 1013.0 |
| 20260501140052 | 15 | 0 | 0.0 | 3.2 | 0.10 | 5.33 | 2.26 | 96 | 1015.2 |
| 20260501134550 | 15 | 0 | 0.0 | 1.6 | 0.05 | 5.28 | 2.18 | 96 | 1015.0 |